Theta_e
317 313 313 313 313 312 312 313 316 315 316 316 317 317 316 314 315 315 315 315 314 315
315 314 313 314 314 313 315 314 315 316 315 316 316 314 314 312 311 314 313 312 313 311
314 314 314 314 314 314 315 315 315 315 315 314 314 315 315 313 311 311 312 310 309 314
313 314 315 314 315 315 316 315 315 314 311 311 313 314 312 309 309 309 310 310 311 309
314 314 314 314 315 315 315 316 315 315 314 314 313 311 308 309 311 310 309 310 310 309
313 313 314 315 315 315 315 315 315 315 312 312 310 308 310 309 310 309 312 312 311 309
313 314 314 315 315 315 315 314 314 312 314 312 308 308 309 309 309 312 312 312 314 313
314 315 315 315 315 316 315 315 313 314 313 310 309 306 308 308 309 308 309 310 310 312
313 314 314 314 314 315 315 314 313 312 312 309 308 302 305 308 308 307 307 306 307 308
313 313 313 314 314 314 314 314 311 311 309 308 310 301 302 306 307 306 308 307 306 305
312 312 314 314 314 314 315 314 312 310 310 310 309 300 301 304 306 306 307 306 306 305
312 311 313 313 313 314 315 314 310 311 311 311 310 299 300 306 307 304 304 305 305 305
312 312 310 311 313 313 315 314 312 311 310 307 311 298 298 307 309 306 306 308 307 300
312 311 311 311 313 312 314 314 314 310 310 311 307 306 297 298 310 308 307 307 305 304
Wind_Speed
11 8 7 9 8 7 7 7 9 9 9 9 9 8 8 7 6 6 7 9 8 6
10 10 9 9 8 7 7 8 9 9 9 9 9 9 9 7 9 8 7 7 7 5
9 9 8 8 9 9 8 9 9 9 9 9 9 9 9 8 8 8 7 5 6 8
9 9 9 8 9 9 9 9 9 9 10 9 9 10 9 9 9 8 8 7 8 6
9 9 10 10 10 10 10 9 9 10 10 11 10 11 10 10 10 10 9 7 7 4
10 11 11 10 10 10 10 11 10 11 11 12 13 11 11 10 10 10 10 11 7 4
11 11 10 10 10 11 11 10 10 9 12 13 11 11 10 10 9 10 11 13 12 8
10 10 9 9 9 10 12 10 10 10 12 12 11 9 11 10 10 10 10 13 13 11
11 10 10 10 9 9 11 12 11 10 11 12 9 14 14 12 8 9 10 9 10 10
10 10 10 9 9 9 10 11 10 10 10 10 11 14 11 13 8 8 10 10 8 7
10 10 10 9 9 9 8 10 9 9 9 9 9 13 9 10 8 9 11 11 11 11
9 9 8 9 9 8 8 8 8 8 10 11 11 13 9 7 7 9 9 9 10 9
7 7 9 7 7 7 5 7 6 7 9 10 10 13 9 6 6 9 8 11 11 13
6 6 7 6 5 6 5 5 7 7 8 10 10 11 11 9 9 8 9 9 8 6
Wind_Direction
13 9 6 4 357 358 355 348 341 339 338 338 335 333 328 307 316 303 304 298 296 286
8 4 1 358 353 355 346 341 345 340 334 330 330 332 329 330 320 317 310 305 294 286
6 359 353 349 354 351 351 353 348 344 341 337 337 333 329 328 316 315 312 281 274 286
357 357 355 353 352 353 352 351 347 349 344 343 346 338 350 334 323 314 300 295 278 254
355 356 0 3 3 2 0 357 348 348 350 3 355 5 343 343 341 332 325 319 299 224
6 2 5 5 3 2 358 360 1 4 9 1 6 354 350 346 344 341 348 0 7 122
1 360 2 6 7 6 8 8 13 2 7 15 4 360 355 2 4 12 18 19 31 41
4 2 3 7 9 15 18 10 10 5 17 17 17 7 7 16 18 19 23 34 32 42
2 2 7 8 6 11 14 16 14 13 15 17 20 354 11 24 24 31 29 35 33 40
4 3 8 6 7 10 12 11 18 13 14 18 19 357 13 27 29 33 41 48 46 43
3 2 9 14 14 15 15 16 11 5 11 13 24 1 20 30 38 48 46 42 47 54
360 356 3 8 9 12 15 20 10 8 24 20 32 5 15 49 58 56 44 47 44 54
2 360 7 358 358 1 10 19 23 14 29 23 31 24 19 54 76 72 73 71 74 54
10 8 14 2 0 358 16 29 36 26 36 35 28 41 24 10 87 93 87 82 75 61